Location: Unspecified
(0.0000°N, 0.0000°E)
Time: 19:05:14
(UTC+00:00)

Hubble Space Telescope - Pass Details

Date: 08 December 2017
Orbit: 538 x 541 km, 28.5° (Epoch: 10 December)

Event Time Altitude Azimuth Distance (km) Brightness Sun altitude
Exits shadow 04:43:04 - 232° (SW) 1,879 3.3 -15.8°
Reaches altitude 10° 04:43:46 10° 223° (SW) 1,783 3.2 -15.7°
Maximum altitude 04:44:56 11° 207° (SSW) 1,721 3.3 -15.4°
Drops below altitude 10° 04:46:06 10° 190° (S) 1,783 3.6 -15.1°
Sets 04:50:01 0° 153° (SSE) 2,675 5.2 -14.2°
